[[{"header":{"parameterUnit":"m.s-1","parameterCategory":1,"la1":30.2991,"la2":30.254,"lo1":-89.0895,"lo2":-89.0444,"dy":0.0017,"dx":0.0017,"nx":28,"ny":28,"refTime":"2024-05-19T21:00:00:Z","depth":0,"parameterNumber":2,"parameterNumberName":"U-component_of_WINDS"},"data":[0,0,0,0,0,0,0,0,0,0,0,0,0,0,0,0,0,0,0,0,0,0,0,0,0,0,0,0,0,0,0,0,0,0,0,0,0,0,0,0,0,0,0,0,0,0,0,0,0,0,0,0,0,0,0,0,0,0,-1.6509,-1.6509,0,-1.655,-1.6551,-1.6551,-1.6549,-1.6548,-1.6547,-1.6547,-1.6589,-1.659,-1.6592,0,0,0,0,0,0,0,0,0,0,0,0,0,-1.6428,-1.643,-1.6509,-1.6509,-1.651,-1.655,-1.6551,-1.6551,-1.6549,-1.6548,-1.6547,-1.6547,-1.6588,-1.659,-1.6592,0,0,0,0,0,0,0,0,0,0,0,0,0,-1.6466,-1.643,-1.6509,-1.6514,-1.6514,-1.655,-1.6551,-1.6551,-1.6549,-1.6548,-1.6547,-1.6546,-1.6588,-1.659,-1.6593,-1.6626,0,0,-1.66,-1.6601,0,0,0,0,0,0,0,0,-1.6464,-1.6469,-1.6512,-1.6513,-1.6514,-1.6543,-1.6538,-1.6576,-1.6549,-1.6536,-1.6547,-1.6546,-1.6574,-1.6578,-1.6588,-1.6628,-1.663,-1.66,-1.6602,-1.6603,-1.6604,0,0,0,0,0,0,0,-1.6461,-1.6467,-1.6525,-1.6513,-1.6514,-1.6514,-1.6518,-1.6545,-1.656,-1.6537,-1.6537,-1.6542,-1.6575,-1.6585,-1.6589,-1.663,-1.66,-1.6603,-1.6604,-1.6605,-1.6701,-1.6702,0,0,0,0,0,0,-1.6457,-1.6465,-1.6524,-1.6526,-1.6486,-1.6516,-1.6521,-1.6535,-1.6559,-1.6562,-1.6542,-1.6541,-1.6581,-1.6586,-1.659,-1.6631,-1.6603,-1.6605,-1.6607,-1.67,-1.6701,-1.6702,0,0,0,0,0,0,-1.6456,-1.6463,-1.6522,-1.6496,-1.6503,-1.6518,-1.6534,-1.6536,-1.6547,-1.6564,-1.6566,-1.655,-1.6581,-1.6587,-1.6617,-1.6632,-1.6607,-1.6609,-1.6698,-1.67,-1.6701,-1.6713,0,0,0,0,0,0,-1.6453,-1.6462,-1.6475,-1.6496,-1.6505,-1.6549,-1.6535,-1.6538,-1.6551,-1.655,-1.6572,-1.6574,-1.6581,-1.6613,-1.662,-1.6635,-1.6611,-1.6697,-1.6699,-1.6701,-1.6711,-1.6715,-1.6718,0,0,0,0,0,-1.645,-1.6476,-1.6475,-1.6483,-1.6521,-1.6549,-1.6554,-1.6561,-1.6552,-1.6565,-1.6576,-1.6574,-1.663,-1.6617,-1.6624,-1.664,-1.6696,-1.6699,-1.6701,-1.671,-1.6714,-1.6718,0,0,0,0,0,0,-1.6456,-1.6479,-1.6478,-1.6512,-1.6529,-1.6549,-1.6566,-1.6565,-1.6585,-1.6583,-1.6591,-1.6596,-1.6626,-1.6636,-1.6621,-1.6674,-1.6662,-1.6666,-1.6666,-1.6671,-1.6674,-1.667,-1.6613,0,0,0,0,0,-1.6462,-1.6483,-1.6502,-1.6529,-1.6538,-1.655,-1.6563,-1.6567,-1.6585,-1.6592,-1.6605,-1.6622,-1.6644,-1.6658,-1.6678,-1.6713,-1.6718,-1.6728,-1.6731,-1.6734,-1.6737,-1.6756,-1.6761,-1.671,-1.671,-1.671,0,0,-1.6472,-1.6488,-1.6501,-1.6531,-1.6544,-1.6567,-1.6556,-1.658,-1.6596,-1.6595,-1.6625,-1.6635,-1.6655,-1.6688,-1.6703,-1.6697,-1.6752,-1.6737,-1.6738,-1.674,-1.6759,-1.6764,-1.6768,-1.6711,-1.6711,-1.6711,0,0,-1.6504,-1.6517,-1.6542,-1.6556,-1.6577,-1.6585,-1.6591,-1.6611,-1.6618,-1.6648,-1.6648,-1.6668,-1.6705,-1.6719,-1.6731,-1.6768,-1.6767,-1.6775,-1.6791,-1.681,-1.6814,-1.6818,-1.6831,-1.6836,-1.6778,-1.6778,-1.6778,0,-1.6515,-1.6548,-1.6555,-1.6579,-1.6592,-1.6592,-1.6617,-1.6631,-1.6657,-1.6666,-1.666,-1.6706,-1.672,-1.6756,-1.6765,-1.6775,-1.6782,-1.6772,-1.6813,-1.6816,-1.682,-1.6833,-1.6838,-1.6779,-1.6779,-1.6779,-1.6778,0,-1.656,-1.6583,-1.6601,-1.6626,-1.6642,-1.6666,-1.6677,-1.6692,-1.6695,-1.6703,-1.6734,-1.6751,-1.6775,-1.6784,-1.6786,-1.682,-1.6816,-1.6811,-1.6799,-1.6826,-1.6838,-1.6843,-1.678,-1.678,-1.6779,-1.6779,0,0,-1.6596,-1.6625,-1.6632,-1.6644,-1.6667,-1.6685,-1.6709,-1.6733,-1.6746,-1.6764,-1.6785,-1.6817,-1.6812,-1.6826,-1.683,-1.6847,-1.6875,-1.684,-1.684,-1.6846,-1.6914,-1.6918,-1.6923,-1.6875,-1.6876,-1.6876,-1.6913,0,-1.6629,-1.6673,-1.668,-1.6718,-1.674,-1.6741,-1.6762,-1.6779,-1.6788,-1.6808,-1.6818,-1.684,-1.6832,-1.6841,-1.6857,-1.6868,-1.6889,-1.6866,-1.6894,-1.6895,-1.6889,-1.693,-1.6934,-1.6967,-1.6917,-1.6918,-1.6919,0,-1.6674,-1.6694,-1.6734,-1.6755,-1.6764,-1.6783,-1.6806,-1.6825,-1.6844,-1.6849,-1.6865,-1.6868,-1.6893,-1.688,-1.6916,-1.69,-1.6912,-1.6919,-1.6921,-1.6923,-1.6908,-1.6933,-1.6977,-1.6982,-1.6926,-1.6926,-1.6925,0,-1.6696,-1.6733,-1.6762,-1.6772,-1.6797,-1.681,-1.6821,-1.6839,-1.6853,-1.6873,-1.6882,-1.6905,-1.6917,-1.6935,-1.6943,-1.6933,-1.6978,-1.6966,-1.6984,-1.6984,-1.6993,-1.6992,-1.704,-1.7001,-1.7001,-1.7001,-1.7001,0,-1.6733,-1.6757,-1.6772,-1.679,-1.6818,-1.6826,-1.6853,-1.6864,-1.688,-1.69,-1.6902,-1.6921,-1.6931,-1.6952,-1.6959,-1.6987,-1.6993,-1.6998,-1.6999,-1.6998,-1.6997,-1.7006,-1.7003,-1.7002,-1.7002,-1.7002,-1.7001,0,-1.6762,-1.6773,-1.6804,-1.6825,-1.6831,-1.6851,-1.6869,-1.6886,-1.6895,-1.6921,-1.6927,-1.6942,-1.6966,-1.6976,-1.7006,-1.7011,-1.7043,-1.7043,-1.7037,-1.7037,-1.7055,-1.7053,-1.7109,-1.7117,-1.7073,-1.7073,-1.7074,0,-1.6785,-1.6804,-1.6827,-1.684,-1.6852,-1.6873,-1.6888,-1.6897,-1.6912,-1.6935,-1.695,-1.6974,-1.6994,-1.7032,-1.7045,-1.7068,-1.7069,-1.7087,-1.7072,-1.707,-1.7069,-1.7068,-1.707,-1.7089,-1.709,-1.709,-1.709,0,-1.6824,-1.6828,-1.6849,-1.6871,-1.6888,-1.6907,-1.6925,-1.6936,-1.6947,-1.6964,-1.6989,-1.7004,-1.7035,-1.7059,-1.7082,-1.7094,-1.7094,-1.7095,-1.71,-1.7098,-1.7094,-1.7097,-1.7044,-1.7093,-1.7093,-1.7093,-1.7093,-1.7093,-1.685,-1.6867,-1.6886,-1.6909,-1.6924,-1.694,-1.6958,-1.6969,-1.699,-1.7016,-1.702,-1.7046,-1.7065,-1.7097,-1.7109,-1.713,-1.7126,-1.7133,-1.7135,-1.7137,-1.7138,-1.7091,-1.7134,-1.7134,-1.7134,-1.7134,-1.7134,0,-1.6889,-1.6902,-1.6923,-1.6948,-1.6966,-1.6965,-1.6985,-1.7,-1.7023,-1.7041,-1.706,-1.7089,-1.7112,-1.7128,-1.7151,-1.7165,-1.7166,-1.7171,-1.717,-1.7173,-1.7141,-1.7134,-1.717,-1.717,-1.717,-1.717,-1.717,-1.717,-1.6912,-1.6941,-1.6948,-1.6984,-1.6996,-1.7022,-1.7033,-1.7049,-1.7063,-1.7095,-1.7114,-1.7124,-1.7141,-1.7166,-1.7187,-1.7191,-1.72,-1.7205,-1.7209,-1.7179,-1.7175,-1.7171,-1.7165,-1.7207,-1.7207,-1.7239,-1.724,-1.724]},{"header":{"parameterUnit":"m.s-1","parameterCategory":1,"la1":30.2991,"la2":30.254,"lo1":-89.0895,"lo2":-89.0444,"dy":0.0017,"dx":0.0017,"nx":28,"ny":28,"refTime":"2024-05-19T21:00:00:Z","depth":0,"parameterNumber":3,"parameterNumberName":"V-component_of_WINDS"},"data":[0,0,0,0,0,0,0,0,0,0,0,0,0,0,0,0,0,0,0,0,0,0,0,0,0,0,0,0,0,0,0,0,0,0,0,0,0,0,0,0,0,0,0,0,0,0,0,0,0,0,0,0,0,0,0,0,0,0,1.8358,1.8358,0,1.8352,1.8352,1.8351,1.8316,1.8315,1.8314,1.8313,1.8307,1.8308,1.8308,0,0,0,0,0,0,0,0,0,0,0,0,0,1.8342,1.8342,1.8358,1.8358,1.8358,1.8352,1.8352,1.8351,1.8316,1.8315,1.8314,1.8313,1.8307,1.8308,1.8308,0,0,0,0,0,0,0,0,0,0,0,0,0,1.8343,1.8342,1.8358,1.834,1.8338,1.8352,1.8352,1.8351,1.8316,1.8315,1.8314,1.8313,1.8307,1.8307,1.8308,1.8339,0,0,1.8311,1.8312,0,0,0,0,0,0,0,0,1.8343,1.8344,1.8343,1.8341,1.8339,1.8333,1.8343,1.8347,1.8317,1.8325,1.8313,1.8312,1.8317,1.8317,1.8318,1.8339,1.8339,1.8311,1.8312,1.8312,1.8312,0,0,0,0,0,0,0,1.8343,1.8344,1.8356,1.8343,1.8341,1.8332,1.8331,1.8344,1.8328,1.8324,1.8321,1.8321,1.8316,1.8318,1.8318,1.8339,1.8311,1.8312,1.8313,1.8313,1.8385,1.8386,0,0,0,0,0,0,1.8346,1.8344,1.8356,1.8356,1.8338,1.8333,1.8332,1.8337,1.8328,1.8325,1.8322,1.8319,1.8317,1.8317,1.8318,1.8354,1.8312,1.8313,1.8314,1.8384,1.8385,1.8387,0,0,0,0,0,0,1.8345,1.8347,1.8356,1.8349,1.835,1.8335,1.834,1.8337,1.8339,1.8326,1.8323,1.8327,1.8316,1.8316,1.8334,1.8353,1.8313,1.8314,1.8382,1.8384,1.8386,1.8426,0,0,0,0,0,0,1.8345,1.8347,1.8359,1.835,1.835,1.8373,1.8341,1.8338,1.8341,1.8337,1.833,1.8328,1.8315,1.8333,1.8335,1.8353,1.8315,1.838,1.8383,1.8386,1.8423,1.8429,1.8434,0,0,0,0,0,1.8345,1.837,1.8359,1.8361,1.8364,1.8374,1.8374,1.8359,1.8342,1.8354,1.8346,1.8328,1.8351,1.8335,1.8337,1.8356,1.8379,1.8382,1.8385,1.842,1.8428,1.8434,0,0,0,0,0,0,1.8381,1.8368,1.8357,1.838,1.8378,1.8368,1.8382,1.8367,1.8371,1.8367,1.8348,1.8346,1.8367,1.8364,1.8347,1.8386,1.8362,1.8366,1.8388,1.8395,1.84,1.8401,1.8316,0,0,0,0,0,1.8392,1.8401,1.839,1.8411,1.8411,1.8397,1.8401,1.8389,1.8387,1.8386,1.8379,1.8378,1.8384,1.8389,1.8395,1.8422,1.842,1.8436,1.8442,1.8447,1.845,1.8464,1.8471,1.8397,1.8397,1.8397,0,0,1.8415,1.8409,1.8416,1.8419,1.8416,1.8426,1.8397,1.8408,1.8416,1.8388,1.8404,1.8399,1.8397,1.842,1.8429,1.8417,1.847,1.845,1.8454,1.8455,1.8468,1.8475,1.8481,1.8399,1.8399,1.8398,0,0,1.8461,1.8457,1.8475,1.8473,1.847,1.846,1.8465,1.8457,1.8452,1.8469,1.8448,1.8457,1.8469,1.8468,1.8469,1.8515,1.8499,1.8518,1.8547,1.8562,1.8568,1.8573,1.8589,1.8596,1.8521,1.8521,1.8521,0,1.8489,1.8503,1.8486,1.8499,1.8501,1.8476,1.8494,1.8494,1.8492,1.8494,1.8481,1.8495,1.8492,1.8514,1.8526,1.8527,1.8532,1.8518,1.8568,1.8573,1.8577,1.8593,1.86,1.8523,1.8523,1.8523,1.8523,0,1.8538,1.8549,1.8563,1.8563,1.8566,1.8582,1.8568,1.8573,1.8561,1.8553,1.8571,1.8566,1.857,1.8574,1.8563,1.8595,1.8588,1.8571,1.8547,1.8587,1.8602,1.8607,1.8527,1.8526,1.8525,1.8525,0,0,1.8607,1.8597,1.8603,1.8602,1.8597,1.8605,1.8619,1.8623,1.8629,1.8629,1.8641,1.8652,1.8637,1.8638,1.8626,1.8639,1.8676,1.8621,1.8621,1.8632,1.8712,1.8725,1.8732,1.8666,1.8667,1.8668,1.8713,0,1.8651,1.8676,1.8661,1.8688,1.8697,1.8674,1.8686,1.8685,1.8678,1.8685,1.8677,1.8686,1.8665,1.8666,1.8677,1.8669,1.8692,1.8666,1.8677,1.8678,1.8678,1.8739,1.8753,1.8795,1.8718,1.8719,1.872,0,1.8706,1.8709,1.8736,1.8729,1.8733,1.8745,1.8747,1.8754,1.8752,1.8746,1.8748,1.8733,1.8747,1.8723,1.8743,1.8725,1.8729,1.8726,1.8727,1.8728,1.8701,1.8742,1.8808,1.8815,1.8728,1.8728,1.8727,0,1.8754,1.8764,1.8782,1.8782,1.8775,1.8784,1.8781,1.8777,1.8781,1.8783,1.8786,1.879,1.8792,1.8796,1.8783,1.8767,1.8804,1.8779,1.88,1.88,1.8809,1.8809,1.8877,1.8811,1.8811,1.8811,1.8811,0,1.8805,1.8823,1.8803,1.8814,1.8834,1.8817,1.8837,1.8831,1.8829,1.8838,1.8819,1.8828,1.881,1.8818,1.8808,1.8826,1.8827,1.8823,1.882,1.8825,1.8825,1.8827,1.8824,1.8813,1.8812,1.8812,1.8812,0,1.8861,1.8849,1.8867,1.8858,1.8857,1.8871,1.8864,1.8874,1.8866,1.8879,1.8881,1.8868,1.8877,1.8864,1.8871,1.8864,1.8889,1.8881,1.889,1.8887,1.8909,1.8907,1.8981,1.899,1.8919,1.8919,1.892,0,1.8894,1.8908,1.8901,1.8906,1.8904,1.8913,1.8916,1.89,1.8905,1.8903,1.8914,1.892,1.8925,1.894,1.8931,1.8937,1.8929,1.8955,1.893,1.8934,1.893,1.8929,1.893,1.896,1.8961,1.8961,1.8962,0,1.8955,1.8948,1.8954,1.8958,1.8963,1.8965,1.8966,1.8971,1.8955,1.8961,1.8969,1.8973,1.898,1.8987,1.899,1.8988,1.8972,1.897,1.8975,1.898,1.8984,1.8982,1.8904,1.8968,1.8968,1.8967,1.8967,1.8967,1.9001,1.9012,1.9009,1.9016,1.9015,1.9016,1.9025,1.9018,1.9025,1.9029,1.902,1.903,1.9028,1.9031,1.903,1.9039,1.9027,1.9035,1.9037,1.9039,1.9042,1.8983,1.9039,1.9039,1.9039,1.9039,1.9038,0,1.9061,1.9057,1.9064,1.9066,1.9072,1.9057,1.9057,1.9063,1.9073,1.9072,1.9077,1.9087,1.9093,1.9086,1.9091,1.91,1.9093,1.9102,1.9101,1.91,1.9052,1.9047,1.9107,1.9107,1.9107,1.9107,1.9107,1.9107,1.9092,1.911,1.9103,1.912,1.9117,1.9127,1.9128,1.913,1.9129,1.9141,1.9146,1.9141,1.9138,1.9143,1.9149,1.9146,1.9149,1.9161,1.9156,1.9111,1.9104,1.9097,1.9093,1.9161,1.9161,1.9204,1.9204,1.9204]}]]